Hourly Weather Rudnoe

Today, 16 June, Wednesday

Time Temperature Precipitation Wind Pressure Humidity
00:00 +15°C° 0 mm 2 mps 745 mmHg 96%
01:00 +15°C° 0 mm 2 mps 746 mmHg 96%
02:00 +15°C° 0 mm 2 mps 746 mmHg 97%
03:00 +14°C° 0 mm 2 mps 746 mmHg 95%
04:00 +13°C° 0 mm 2 mps 746 mmHg 94%
05:00 +12°C° 0 mm 2 mps 746 mmHg 92%
06:00 +13°C° 0 mm 3 mps 746 mmHg 85%
07:00 +16°C° 0 mm 3 mps 747 mmHg 77%
08:00 +17°C° 0 mm 3 mps 747 mmHg 70%
09:00 +19°C° 0 mm 3 mps 747 mmHg 64%
10:00 +20°C° 0 mm 3 mps 747 mmHg 58%
11:00 +21°C° 0 mm 3 mps 748 mmHg 52%
12:00 +22°C° 0 mm 3 mps 748 mmHg 50%
13:00 +22°C° 0 mm 3 mps 748 mmHg 47%
14:00 +24°C° 0 mm 3 mps 748 mmHg 44%
15:00 +24°C° 0 mm 3 mps 748 mmHg 45%
16:00 +22°C° 0 mm 3 mps 748 mmHg 47%
17:00 +22°C° 0 mm 3 mps 748 mmHg 49%
18:00 +20°C° 0 mm 3 mps 748 mmHg 57%
19:00 +19°C° 0 mm 2 mps 748 mmHg 64%
20:00 +17°C° 0 mm 2 mps 749 mmHg 72%
21:00 +16°C° 0 mm 2 mps 749 mmHg 74%
22:00 +14°C° 0 mm 2 mps 749 mmHg 76%
23:00 +13°C° 0 mm 2 mps 750 mmHg 78%

Tomorrow, 17 June, Thursday

Time Temperature Precipitation Wind Pressure Humidity
00:00 +13°C° 0 mm 2 mps 750 mmHg 79%
01:00 +12°C° 0 mm 2 mps 750 mmHg 80%
02:00 +12°C° 0 mm 2 mps 751 mmHg 81%
03:00 +12°C° 0 mm 2 mps 751 mmHg 80%
04:00 +12°C° 0 mm 1 mps 751 mmHg 79%
05:00 +13°C° 0 mm 1 mps 751 mmHg 78%
06:00 +15°C° 0 mm 2 mps 752 mmHg 72%
07:00 +17°C° 0 mm 2 mps 752 mmHg 65%
08:00 +19°C° 0 mm 2 mps 752 mmHg 59%
09:00 +20°C° 0 mm 2 mps 752 mmHg 55%
10:00 +23°C° 0 mm 2 mps 753 mmHg 51%
11:00 +24°C° 0 mm 2 mps 753 mmHg 47%
12:00 +25°C° 0 mm 2 mps 753 mmHg 46%
13:00 +25°C° 0 mm 2 mps 753 mmHg 45%
14:00 +26°C° 0 mm 2 mps 753 mmHg 44%
15:00 +26°C° 0 mm 2 mps 753 mmHg 46%
16:00 +26°C° 0 mm 2 mps 753 mmHg 48%
17:00 +25°C° 0 mm 2 mps 753 mmHg 51%
18:00 +24°C° 0 mm 2 mps 753 mmHg 60%
19:00 +21°C° 0 mm 2 mps 753 mmHg 69%
20:00 +19°C° 0 mm 2 mps 753 mmHg 78%
21:00 +19°C° 0 mm 1 mps 753 mmHg 80%
22:00 +18°C° 0 mm 1 mps 753 mmHg 82%
23:00 +16°C° 0 mm 1 mps 753 mmHg 85%

Day after tomorrow, 18 June, Friday

Time Temperature Precipitation Wind Pressure Humidity
00:00 +16°C° 0 mm 1 mps 753 mmHg 86%
01:00 +15°C° 0 mm 1 mps 754 mmHg 87%
02:00 +15°C° 0 mm 1 mps 754 mmHg 88%
03:00 +15°C° 0 mm 1 mps 754 mmHg 86%
04:00 +15°C° 0 mm 1 mps 754 mmHg 85%
05:00 +15°C° 0 mm 1 mps 754 mmHg 84%
06:00 +17°C° 0 mm 2 mps 754 mmHg 77%
07:00 +19°C° 0 mm 2 mps 754 mmHg 70%
08:00 +21°C° 0 mm 2 mps 754 mmHg 64%
09:00 +23°C° 0 mm 2 mps 754 mmHg 59%
10:00 +25°C° 0 mm 3 mps 754 mmHg 55%
11:00 +26°C° 0 mm 3 mps 754 mmHg 50%
12:00 +26°C° 0 mm 3 mps 754 mmHg 49%
13:00 +27°C° 0 mm 3 mps 754 mmHg 48%
14:00 +27°C° 0 mm 3 mps 754 mmHg 46%
15:00 +27°C° 0 mm 3 mps 753 mmHg 49%
16:00 +27°C° 0 mm 3 mps 753 mmHg 52%
17:00 +26°C° 0 mm 3 mps 753 mmHg 54%
18:00 +25°C° 0 mm 3 mps 753 mmHg 63%
19:00 +22°C° 0 mm 3 mps 753 mmHg 71%
20:00 +20°C° 0 mm 2 mps 753 mmHg 79%
21:00 +19°C° 0 mm 2 mps 753 mmHg 82%
22:00 +18°C° 0 mm 2 mps 753 mmHg 85%
23:00 +16°C° 0 mm 2 mps 753 mmHg 88%

19 June, Saturday

Time Temperature Precipitation Wind Pressure Humidity
00:00 +16°C° 0 mm 2 mps 754 mmHg 90%
01:00 +16°C° 0 mm 2 mps 754 mmHg 92%
02:00 +15°C° 0 mm 2 mps 754 mmHg 94%
03:00 +15°C° 0 mm 2 mps 754 mmHg 93%
04:00 +16°C° 0 mm 2 mps 754 mmHg 92%
05:00 +16°C° 0 mm 2 mps 754 mmHg 92%
06:00 +18°C° 0 mm 2 mps 754 mmHg 85%
07:00 +20°C° 0 mm 2 mps 754 mmHg 78%
08:00 +21°C° 0 mm 3 mps 754 mmHg 71%
09:00 +24°C° 0 mm 3 mps 754 mmHg 65%
10:00 +25°C° 0 mm 3 mps 754 mmHg 60%
11:00 +26°C° 0 mm 3 mps 753 mmHg 55%
12:00 +27°C° 0 mm 3 mps 753 mmHg 52%
13:00 +27°C° 0 mm 3 mps 753 mmHg 50%
14:00 +28°C° 0 mm 3 mps 753 mmHg 48%
15:00 +28°C° 0 mm 3 mps 753 mmHg 50%
16:00 +28°C° 0 mm 3 mps 752 mmHg 53%
17:00 +27°C° 0 mm 3 mps 752 mmHg 56%
18:00 +26°C° 0 mm 3 mps 752 mmHg 65%
19:00 +24°C° 0 mm 3 mps 752 mmHg 73%
20:00 +21°C° 0 mm 2 mps 752 mmHg 81%
21:00 +20°C° 0 mm 2 mps 752 mmHg 84%
22:00 +19°C° 0 mm 2 mps 752 mmHg 88%
23:00 +18°C° 0 mm 2 mps 752 mmHg 91%

20 June, Sunday

Time Temperature Precipitation Wind Pressure Humidity
00:00 +17°C° 0 mm 2 mps 752 mmHg 92%
01:00 +17°C° 0 mm 2 mps 752 mmHg 93%
02:00 +16°C° 0 mm 2 mps 753 mmHg 94%
03:00 +16°C° 0 mm 2 mps 753 mmHg 94%
04:00 +16°C° 0 mm 2 mps 753 mmHg 93%
05:00 +16°C° 0 mm 2 mps 753 mmHg 93%
06:00 +18°C° 0 mm 2 mps 753 mmHg 85%
07:00 +20°C° 0 mm 2 mps 753 mmHg 78%
08:00 +22°C° 0 mm 3 mps 752 mmHg 71%
09:00 +24°C° 0 mm 3 mps 752 mmHg 66%
10:00 +25°C° 0 mm 3 mps 752 mmHg 61%
11:00 +27°C° 0 mm 3 mps 752 mmHg 55%
12:00 +27°C° 0 mm 3 mps 752 mmHg 53%
13:00 +27°C° 0 mm 3 mps 752 mmHg 51%
14:00 +28°C° 0 mm 3 mps 751 mmHg 49%
15:00 +27°C° 0 mm 3 mps 751 mmHg 51%
16:00 +27°C° 0 mm 3 mps 751 mmHg 53%
17:00 +27°C° 0 mm 2 mps 751 mmHg 55%
18:00 +25°C° 0 mm 2 mps 751 mmHg 63%
19:00 +24°C° 0 mm 2 mps 751 mmHg 72%
20:00 +21°C° 0 mm 2 mps 751 mmHg 80%
21:00 +20°C° 0 mm 2 mps 751 mmHg 82%
22:00 +19°C° 0 mm 2 mps 751 mmHg 85%
23:00 +18°C° 0 mm 2 mps 751 mmHg 87%

21 June, Monday

Time Temperature Precipitation Wind Pressure Humidity
00:00 +18°C° 0 mm 2 mps 751 mmHg 89%
01:00 +17°C° 0 mm 2 mps 750 mmHg 90%
02:00 +17°C° 0 mm 2 mps 750 mmHg 91%
03:00 +17°C° 0 mm 2 mps 750 mmHg 91%
04:00 +19°C° 0 mm 1 mps 751 mmHg 90%
05:00 +19°C° 0 mm 1 mps 751 mmHg 89%
06:00 +21°C° 0 mm 1 mps 751 mmHg 82%
07:00 +23°C° 0 mm 2 mps 750 mmHg 76%
08:00 +24°C° 0 mm 2 mps 750 mmHg 69%
09:00 +25°C° 0 mm 2 mps 750 mmHg 64%
10:00 +27°C° 0 mm 2 mps 750 mmHg 60%
11:00 +28°C° 0 mm 2 mps 750 mmHg 55%
12:00 +28°C° 0 mm 3 mps 750 mmHg 53%
13:00 +29°C° 0 mm 3 mps 750 mmHg 52%
14:00 +29°C° 0 mm 3 mps 749 mmHg 50%
15:00 +29°C° 0 mm 3 mps 749 mmHg 52%
16:00 +29°C° 0 mm 3 mps 749 mmHg 54%
17:00 +28°C° 0 mm 3 mps 749 mmHg 56%
18:00 +27°C° 0 mm 3 mps 749 mmHg 64%
19:00 +25°C° 0 mm 3 mps 749 mmHg 73%
20:00 +23°C° 0 mm 2 mps 749 mmHg 82%
21:00 +21°C° 0 mm 2 mps 748 mmHg 84%
22:00 +20°C° 0 mm 2 mps 748 mmHg 87%
23:00 +19°C° 0 mm 2 mps 748 mmHg 90%
Show more